Total_Precipitation_Accumulation
1.02 1.26 1.94 2.29 2.15 1.56 1.07 0.78 0.64 0.66 0.64 0.46 0.26 0.23 0.39 0.61 0.87 1.05 1.05 0.88 0.63 0.51 0.42 0.51 0.61 0.53 0.48 0.48 0.52 0.58 0.60 0.62 0.65 0.69 0.73 0.53 0.40 0.36 0.33 0.33 0.32 0.31 0.27 0.28 0.36 0.42 0.40 0.33 0.35
0.89 1.71 2.51 2.77 2.03 1.18 0.96 0.79 0.82 0.70 0.48 0.33 0.23 0.20 0.27 0.25 0.21 0.53 1.09 1.22 0.71 0.60 0.55 0.61 0.74 0.64 0.54 0.52 0.61 0.69 0.75 0.78 0.84 0.82 0.70 0.49 0.43 0.43 0.42 0.43 0.43 0.37 0.29 0.29 0.32 0.38 0.38 0.34 0.37
1.07 2.02 2.53 2.50 1.40 1.00 0.97 0.92 0.82 0.53 0.34 0.28 0.26 0.19 0.20 0.27 0.33 0.60 1.04 0.87 0.59 0.60 0.65 0.81 0.88 0.76 0.67 0.64 0.70 0.82 0.91 0.90 0.92 0.86 0.64 0.52 0.50 0.52 0.52 0.55 0.48 0.39 0.35 0.32 0.32 0.35 0.33 0.32 0.33
1.41 2.17 2.25 1.73 1.21 0.85 0.80 0.85 0.60 0.44 0.33 0.24 0.20 0.17 0.18 0.29 0.42 0.58 0.71 0.69 0.57 0.53 0.55 0.70 0.84 0.76 0.72 0.74 0.80 0.82 0.78 0.79 0.88 0.80 0.63 0.52 0.57 0.58 0.58 0.53 0.45 0.43 0.43 0.39 0.38 0.37 0.35 0.36 0.33
1.88 2.34 2.02 1.44 1.08 0.89 0.70 0.60 0.45 0.47 0.39 0.29 0.19 0.21 0.26 0.40 0.50 0.63 0.74 0.72 0.64 0.59 0.51 0.60 0.72 0.69 0.68 0.75 0.83 0.85 0.77 0.80 0.84 0.81 0.74 0.57 0.56 0.60 0.62 0.54 0.46 0.44 0.45 0.44 0.43 0.40 0.37 0.34 0.34
2.13 2.21 1.96 1.52 1.09 0.92 0.73 0.52 0.39 0.42 0.35 0.32 0.26 0.28 0.34 0.47 0.58 0.70 0.72 0.76 0.73 0.66 0.60 0.56 0.65 0.64 0.63 0.68 0.76 0.81 0.79 0.87 0.86 0.75 0.69 0.65 0.57 0.58 0.58 0.54 0.54 0.51 0.49 0.48 0.46 0.40 0.37 0.37 0.37
2.16 2.05 1.72 1.23 1.04 1.02 0.74 0.42 0.34 0.36 0.30 0.28 0.28 0.33 0.41 0.55 0.58 0.58 0.62 0.70 0.75 0.73 0.70 0.64 0.64 0.64 0.68 0.77 0.77 0.80 0.87 0.98 0.95 0.77 0.70 0.71 0.60 0.53 0.51 0.52 0.54 0.53 0.54 0.57 0.51 0.42 0.36 0.39 0.41
1.61 1.72 1.65 1.41 1.18 1.19 0.74 0.41 0.24 0.20 0.19 0.16 0.18 0.28 0.41 0.52 0.50 0.61 0.67 0.72 0.75 0.70 0.67 0.60 0.60 0.64 0.69 0.79 0.83 0.84 0.84 0.93 0.92 0.81 0.80 0.79 0.64 0.54 0.54 0.53 0.56 0.58 0.60 0.65 0.60 0.50 0.44 0.43 0.44
1.52 1.63 1.73 1.65 1.11 0.96 0.59 0.49 0.24 0.15 0.14 0.14 0.14 0.16 0.27 0.31 0.36 0.50 0.62 0.64 0.66 0.63 0.63 0.60 0.58 0.61 0.67 0.77 0.79 0.89 0.92 0.95 0.88 0.82 0.85 0.77 0.56 0.53 0.56 0.50 0.62 0.71 0.82 0.82 0.75 0.65 0.56 0.49 0.42
1.60 1.62 1.48 1.16 0.77 0.59 0.57 0.52 0.25 0.20 0.20 0.20 0.19 0.22 0.36 0.44 0.48 0.59 0.62 0.65 0.64 0.65 0.66 0.63 0.66 0.65 0.64 0.69 0.93 1.10 0.98 0.89 0.78 0.80 0.78 0.76 0.73 0.70 0.52 0.53 0.68 0.74 0.82 0.83 0.78 0.74 0.59 0.41 0.30
1.16 1.18 0.96 0.78 0.57 0.46 0.46 0.36 0.26 0.28 0.29 0.27 0.29 0.34 0.41 0.50 0.54 0.56 0.62 0.65 0.67 0.66 0.67 0.62 0.60 0.54 0.55 0.69 0.87 1.06 1.11 1.07 1.04 0.90 0.89 0.85 0.76 0.65 0.51 0.49 0.54 0.59 0.68 0.65 0.69 0.67 0.46 0.36 0.35
0.99 0.82 0.75 0.71 0.50 0.50 0.45 0.32 0.30 0.31 0.27 0.22 0.25 0.30 0.36 0.43 0.49 0.56 0.61 0.58 0.56 0.57 0.60 0.56 0.54 0.51 0.49 0.50 0.61 0.76 0.83 0.82 0.84 0.85 0.79 0.80 0.81 0.74 0.64 0.58 0.62 0.64 0.63 0.68 0.73 0.69 0.55 0.45 0.38
1.04 0.84 0.67 0.62 0.51 0.52 0.46 0.35 0.28 0.26 0.23 0.23 0.30 0.37 0.41 0.44 0.46 0.48 0.47 0.49 0.50 0.51 0.53 0.55 0.58 0.55 0.61 0.60 0.57 0.56 0.62 0.67 0.72 0.80 0.72 0.67 0.70 0.73 0.75 0.69 0.73 0.69 0.68 0.70 0.71 0.59 0.56 0.54 0.44
0.87 0.79 0.74 0.70 0.62 0.55 0.50 0.38 0.30 0.29 0.26 0.27 0.32 0.39 0.42 0.44 0.44 0.42 0.41 0.38 0.38 0.47 0.57 0.62 0.58 0.61 0.60 0.56 0.59 0.62 0.62 0.66 0.69 0.73 0.66 0.60 0.60 0.62 0.74 0.72 0.77 0.69 0.71 0.79 0.71 0.64 0.65 0.64 0.54
0.68 0.82 0.82 0.72 0.69 0.60 0.54 0.55 0.35 0.31 0.29 0.33 0.33 0.37 0.42 0.44 0.43 0.44 0.42 0.39 0.37 0.43 0.57 0.68 0.66 0.69 0.65 0.60 0.63 0.66 0.66 0.63 0.65 0.69 0.62 0.58 0.61 0.62 0.74 0.78 0.77 0.74 0.77 0.81 0.83 0.82 0.77 0.68 0.59
0.77 0.88 1.02 0.76 0.68 0.62 0.63 0.63 0.41 0.40 0.35 0.34 0.30 0.33 0.37 0.39 0.40 0.40 0.40 0.39 0.37 0.40 0.51 0.63 0.65 0.70 0.73 0.72 0.72 0.69 0.65 0.66 0.72 0.75 0.70 0.66 0.64 0.67 0.87 0.92 0.80 0.85 0.95 0.99 1.00 0.96 0.87 0.77 0.72
0.91 0.93 0.88 0.78 0.61 0.57 0.57 0.52 0.43 0.41 0.36 0.32 0.27 0.27 0.28 0.30 0.33 0.35 0.35 0.36 0.37 0.41 0.47 0.52 0.58 0.78 0.81 0.77 0.83 0.83 0.80 0.86 0.89 0.92 0.89 0.84 0.81 0.89 1.06 1.13 1.04 1.01 1.15 1.12 1.01 1.01 1.01 0.91 0.88
0.70 0.58 0.57 0.60 0.49 0.46 0.49 0.38 0.39 0.37 0.31 0.31 0.27 0.23 0.22 0.23 0.27 0.27 0.26 0.27 0.28 0.34 0.39 0.46 0.55 0.67 0.79 0.94 1.02 1.10 1.11 1.11 1.23 1.30 1.29 1.12 1.07 1.13 1.28 1.37 1.33 1.29 1.39 1.38 1.25 1.31 1.30 1.18 1.21
0.50 0.43 0.47 0.45 0.36 0.36 0.37 0.31 0.32 0.31 0.28 0.25 0.22 0.19 0.17 0.15 0.16 0.14 0.14 0.17 0.20 0.25 0.31 0.37 0.54 0.70 0.86 0.98 1.13 1.38 1.54 1.64 1.63 1.63 1.70 1.62 1.43 1.52 1.63 1.59 1.80 1.87 1.84 1.83 1.76 1.86 1.87 1.59 1.43
0.45 0.41 0.41 0.38 0.28 0.26 0.25 0.22 0.21 0.24 0.24 0.21 0.18 0.17 0.14 0.10 0.08 0.06 0.07 0.10 0.12 0.16 0.22 0.30 0.44 0.67 0.92 1.15 1.33 1.52 1.84 2.00 2.00 2.06 2.01 1.96 1.84 1.86 1.79 1.86 2.06 2.11 2.20 2.28 2.12 2.22 2.27 1.95 1.65
0.39 0.33 0.33 0.34 0.33 0.23 0.19 0.18 0.17 0.19 0.20 0.17 0.13 0.13 0.11 0.08 0.07 0.06 0.05 0.06 0.07 0.09 0.14 0.21 0.34 0.57 0.88 1.19 1.45 1.64 1.88 2.14 2.24 2.15 2.10 2.13 2.21 2.26 2.14 2.09 2.22 2.23 2.29 2.45 2.48 2.42 2.46 2.35 2.06
0.41 0.27 0.25 0.22 0.26 0.24 0.17 0.22 0.20 0.19 0.20 0.18 0.15 0.14 0.13 0.11 0.10 0.09 0.07 0.06 0.07 0.10 0.13 0.17 0.32 0.48 0.72 0.99 1.32 1.57 1.84 2.15 2.22 2.20 2.17 2.21 2.33 2.42 2.37 2.31 2.38 2.37 2.32 2.41 2.48 2.47 2.64 2.78 2.49
0.32 0.20 0.17 0.17 0.19 0.18 0.14 0.20 0.20 0.18 0.23 0.22 0.21 0.21 0.19 0.15 0.15 0.13 0.11 0.11 0.12 0.15 0.18 0.24 0.38 0.53 0.74 0.98 1.30 1.63 1.82 1.99 2.19 2.20 2.11 2.05 2.11 2.13 2.11 2.22 2.37 2.37 2.34 2.35 2.51 2.63 2.79 2.74 2.64
0.20 0.16 0.13 0.11 0.12 0.14 0.09 0.19 0.28 0.24 0.23 0.21 0.22 0.23 0.17 0.14 0.15 0.17 0.21 0.22 0.22 0.24 0.30 0.38 0.50 0.72 0.87 0.97 1.12 1.29 1.50 1.78 1.92 2.02 2.06 2.07 2.06 1.94 1.86 1.95 2.05 2.13 2.18 2.17 2.21 2.36 2.50 2.65 2.77
0.12 0.16 0.22 0.20 0.21 0.17 0.12 0.23 0.34 0.28 0.23 0.22 0.22 0.20 0.19 0.21 0.26 0.33 0.43 0.40 0.37 0.40 0.49 0.56 0.63 0.73 0.79 0.78 0.87 1.00 1.16 1.38 1.52 1.61 1.80 1.87 1.91 1.85 1.80 1.76 1.84 1.91 1.95 2.06 2.21 2.19 2.21 2.37 2.55
0.08 0.11 0.24 0.30 0.29 0.25 0.28 0.41 0.44 0.36 0.28 0.24 0.21 0.19 0.22 0.29 0.39 0.54 0.66 0.70 0.64 0.62 0.64 0.62 0.63 0.60 0.62 0.66 0.73 0.80 0.87 1.01 1.13 1.21 1.37 1.49 1.49 1.47 1.45 1.50 1.60 1.75 1.85 1.95 2.06 2.09 2.05 2.12 2.18
0.06 0.07 0.11 0.20 0.20 0.24 0.35 0.51 0.51 0.36 0.29 0.27 0.26 0.23 0.29 0.42 0.57 0.73 0.86 0.93 0.87 0.79 0.72 0.68 0.68 0.65 0.58 0.60 0.69 0.75 0.80 0.81 0.85 0.89 0.88 0.97 1.05 1.08 1.13 1.18 1.32 1.52 1.65 1.71 1.81 1.93 1.94 1.98 1.97
0.06 0.08 0.12 0.24 0.36 0.39 0.40 0.53 0.60 0.50 0.38 0.36 0.38 0.44 0.55 0.73 0.80 0.91 0.99 0.97 0.96 1.00 0.94 0.77 0.71 0.71 0.66 0.73 0.75 0.72 0.71 0.69 0.67 0.71 0.77 0.78 0.86 0.97 1.06 1.08 1.15 1.26 1.36 1.47 1.64 1.77 1.84 1.86 1.81
0.10 0.14 0.21 0.34 0.43 0.57 0.69 0.82 0.70 0.57 0.56 0.54 0.56 0.72 0.82 0.93 1.00 1.02 1.08 1.01 0.89 0.89 0.87 0.85 0.79 0.74 0.75 0.80 0.80 0.70 0.67 0.67 0.67 0.65 0.67 0.76 0.85 0.95 1.00 1.05 1.10 1.13 1.23 1.28 1.39 1.53 1.64 1.65 1.64
0.23 0.36 0.46 0.63 0.65 0.63 0.87 1.06 0.78 0.64 0.65 0.66 0.65 0.63 0.65 0.83 0.95 0.98 1.04 0.97 0.81 0.77 0.68 0.71 0.79 0.79 0.85 0.86 0.79 0.71 0.71 0.74 0.79 0.77 0.70 0.71 0.77 0.79 0.90 1.04 1.03 1.04 1.09 1.17 1.27 1.37 1.41 1.47 1.42